• MPC Preparation (Info)

  • MPEC 2010-V136: 2010 VP139

    The following Minor Planet Electronic Circular may be linked-to from your own Web pages, but must not otherwise be redistributed electronically.

    A form allowing access to any MPEC is at the bottom of this page.


    Read MPEC 2010-V135 Read MPEC 2010-V137


    M.P.E.C. 2010-V136                               Issued 2010 Nov. 14, 21:18 UT
    
         The Minor Planet Electronic Circulars contain information on unusual
             minor planets and routine data on comets.  They are published
       on behalf of Commission 20 of the International Astronomical Union by the
              Minor Planet Center, Smithsonian Astrophysical Observatory,
                              Cambridge, MA 02138, U.S.A.
    
                 Prepared using the Tamkin Foundation Computer Network
    
                                  MPC@CFA.HARVARD.EDU
           URL https://www.minorplanetcenter.org/iau/mpc.html  ISSN 1523-6714
    
                                      2010 VP139
    
    Observations:
         K10VD9P* C2010 11 14.27911 03 37 58.44 +31 47 55.3          20.5 V EV136G96
         K10VD9P  C2010 11 14.28604 03 37 55.38 +31 47 27.2          20.4 V EV136G96
         K10VD9P  C2010 11 14.29293 03 37 52.28 +31 46 58.6          20.5 V EV136G96
         K10VD9P  C2010 11 14.29982 03 37 49.22 +31 46 29.4          20.3 V EV136G96
         K10VD9P  C2010 11 14.31236 03 37 43.68 +31 45 35.1          19.6 V EV136G96
         K10VD9P  C2010 11 14.31301 03 37 43.42 +31 45 32.6          20.1 V EV136G96
         K10VD9P  C2010 11 14.31366 03 37 43.17 +31 45 29.9          20.3 V EV136G96
         K10VD9P  C2010 11 14.31431 03 37 42.81 +31 45 26.4          20.3 V EV136G96
         K10VD9P  C2010 11 14.32330 03 37 38.92 +31 44 46.6          20.6 V EV136G96
         K10VD9P  C2010 11 14.32387 03 37 38.71 +31 44 44.4          20.2 V EV136G96
         K10VD9P  C2010 11 14.32443 03 37 38.42 +31 44 41.8          20.2 V EV136G96
         K10VD9P  C2010 11 14.32499 03 37 38.17 +31 44 39.3          20.5 V EV136G96
    
    Observer details:
    G96 Mt. Lemmon Survey.  Observer A. Boattini.  Measurers J. D. Ahern,
        E. C. Beshore, A. Boattini, G. J. Garradd, A. R. Gibbs, A. D. Grauer,
        R. E. Hill, R. A. Kowalski, S. M. Larson, R. H. McNaught.  1.5-m reflector
        + CCD.
    
    Orbital elements:
    2010 VP139                                               Earth MOID = 0.0008 AU
    Epoch 2010 Oct. 31.0 TT = JDT 2455500.5                 MPC
    M  38.63748              (2000.0)            P               Q
    n   0.83704245     Peri.  292.05858     +0.93363253     +0.35756539
    a   1.1150758      Node    46.99818     -0.31667558     +0.85230113
    e   0.2129797      Incl.    1.71185     -0.16747202     +0.38174571
    P   1.18           H   29.1           G   0.15
    From 12 observations 2010 Nov. 14.  E-assumed.
    
    Ephemeris:
    2010 VP139               a,e,i = 1.12, 0.21, 2                   q = 0.8776
    Date    TT    R. A. (2000) Decl.     Delta      r     Elong.  Phase     V
    2010 11 10.0  15 09.92   -14 43.6    0.00376  0.987     3.4   176.6
    2010 11 10.1  15 07.94   -13 20.3    0.00341  0.987     4.2   175.8
    2010 11 10.2  15 05.53   -11 37.9    0.00306  0.987     5.6   174.4
    2010 11 10.3  15 02.55   -09 29.1    0.00271  0.988     7.6   172.4
    2010 11 10.4  14 58.77   -06 42.9    0.00237  0.988    10.4   169.6    32.4
    2010 11 10.5  14 53.80   -03 01.9    0.00204  0.988    14.2   165.7    29.2
    2010 11 10.6  14 46.99   +02 02.8    0.00172  0.989    19.6   160.4    26.4
    2010 11 10.7  14 37.13   +09 19.5    0.00143  0.989    27.2   152.7    23.8
    2010 11 10.8  14 21.63   +20 03.9    0.00117  0.989    38.6   141.3    21.4
    2010 11 10.9  13 54.17   +35 38.3    0.00098  0.990    55.4   124.6    19.2
    2010 11 11.0  12 55.55   +54 58.5    0.00090  0.990    77.2   102.7    17.6
    2010 11 11.1  10 27.73   +69 47.7    0.00097  0.990    99.3    80.7    16.8
    2010 11 11.2  07 04.89   +69 31.8    0.00115  0.991   116.5    63.5    16.6
    2010 11 11.3  05 30.58   +62 34.9    0.00141  0.991   128.2    51.7    16.7
    2010 11 11.4  04 51.12   +56 27.5    0.00170  0.991   136.1    43.8    16.9
    2010 11 11.5  04 30.69   +51 51.1    0.00202  0.992   141.7    38.2    17.1
    2010 11 11.6  04 18.40   +48 24.1    0.00235  0.992   145.7    34.2    17.4
    2010 11 11.7  04 10.23   +45 45.9    0.00269  0.992   148.7    31.2    17.6
    2010 11 11.8  04 04.42   +43 42.0    0.00303  0.993   151.1    28.8    17.8
    2010 11 11.9  04 00.08   +42 02.8    0.00338  0.993   153.0    26.9    17.9
    2010 11 12.0  03 56.72   +40 41.8    0.00373  0.993   154.6    25.4    18.1
    
    2010 11 13.0  03 42.76   +34 21.9    0.00731  0.997   162.1    17.8    19.3
    2010 11 14.0  03 38.51   +32 10.7    0.0109   1.000   165.0    14.8    20.1
    2010 11 15.0  03 36.47   +31 04.3    0.0146   1.003   166.7    13.1    20.7
    2010 11 16.0  03 35.27   +30 23.8    0.0182   1.007   167.9    11.8    21.1
    2010 11 17.0  03 34.49   +29 56.4    0.0219   1.010   168.8    10.9    21.5
    2010 11 18.0  03 33.95   +29 36.4    0.0256   1.014   169.5    10.2    21.8
    2010 11 19.0  03 33.55   +29 21.0    0.0293   1.017   170.0     9.7    22.1
    2010 11 20.0  03 33.26   +29 08.7    0.0330   1.021   170.3     9.4    22.4
    
    Timothy B. Spahr             (C) Copyright 2010 MPC           M.P.E.C. 2010-V136
    

    Read MPEC 2010-V135 Read MPEC 2010-V137


    MPEC number:

    Enter an MPEC number in one of the following forms:

    • 1997-B01 (the full form)
    • J97B01 (the packed version of the full form)
    • B01 (the abbreviated form)